Regional Weather Roundup
Issued by NWS Charleston, SC

Current Version | Previous Version | Graphics & Text | Print | Product List | Glossary On
Versions: 1 2 3 4 5 6 7 8 9 10 11 12 13 14 15 16 17 18 19 20 21 22 23 24 25 26 27 28 29 30 31 32 33 34 35 36 37 38 39 40 41 42 43 44 45 46 47 48 49 50
000
ASUS42 KCHS 282027
RWRCHS

REGIONAL WEATHER ROUNDUP
NATIONAL WEATHER SERVICE CHARLESTON SC
400 PM EDT THU MAY 28 2015

NOTE: "FAIR" INDICATES FEW OR NO CLOUDS BELOW 12,000 FEET WITH NO
SIGNIFICANT WEATHER AND/OR OBSTRUCTIONS TO VISIBILITY.

NOT ALL STATIONS ARE QUALITY CONTROLLED BY THE NATIONAL
WEATHER SERVICE. USE DATA WITH CAUTION...ESPECIALLY
DEWPOINT OBSERVATIONS.

SCZ027-030-031-034>040-042>050-282100-
...SOUTHEAST SOUTH CAROLINA...

CITY           SKY/WX    TMP DP  RH WIND       PRES   REMARKS
N CHARLESTON   MOSUNNY   83  62  49 SE13G20   30.19F
WATERFRONT PAR   N/A     77  66  68 SE10      30.17F
MOUNT PLEASANT FAIR      81  64  57 E7        30.19F
JOHNS ISLAND   CLEAR     81  64  57 SE9       30.19F
PINOPOLIS        N/A     88  66  48 E7        30.12R HX  90
MONCKS CORNER  FAIR      84  64  51 E8        30.17F
SUMMERVILLE    FAIR      86  66  51 SE8       30.17F
BEAUFORT MCAS  MOSUNNY   84  68  58 E15       30.17F
BEAUFORT ARPT  FAIR      82  68  61 E8        30.17F
HILTON HEAD IS MOSUNNY   81  68  65 NE6       30.19F
WALTERBORO     MOCLDY    84  64  51 SE9       30.16F
ALLENDALE      FAIR      88  64  45 SE10      30.13F

...SOUTHERN MIDLANDS AND PEE DEE...

CITY           SKY/WX    TMP DP  RH WIND       PRES   REMARKS
GEORGETOWN     NOT AVBL
KINGSTREE      NOT AVBL
ORANGEBURG     PTSUNNY   85  64  49 SE8       30.16F
BARNWELL       FAIR      88  64  45 E9        30.14F
AIKEN          FAIR      86  57  37 SE9       30.18F
MANNING        MOCLDY    82  63  51 SE3       30.16F
COLUMBIA       MOSUNNY   89  64  43 SE12      30.14F HX  90
SUMTER         MOSUNNY   87  65  48 E12       30.15F
FLORENCE       MOSUNNY   85  65  51 SE9       30.17F
MYRTLE BEACH   MOSUNNY   81  63  54 S13       30.22F
N MYRTLE BEACH SUNNY     79  64  60 SE12      30.21F

$$

GAZ063-065-086>088-099>101-113>116-118-119-134>141-150-282100-
...SOUTHEAST GEORGIA...

CITY           SKY/WX    TMP DP  RH WIND       PRES   REMARKS
SAVANNAH ARPT  MOSUNNY   85  63  47 E16G22    30.16F
HUNTER AAF     SUNNY     84  67  57 SE9G18    30.15F
FORT STEWART   MOSUNNY   86  63  45 E14       30.14F
STATESBORO     MOSUNNY   87  67  52 SE6       30.14F
SYLVANIA       PTCLDY    89  65  44 SE5       30.14F HX  91
CLAXTON        FAIR      86  63  45 SE10      30.14F

...CSRA...CENTRAL AND FAR SOUTHEAST GEORGIA...

CITY           SKY/WX    TMP DP  RH WIND       PRES   REMARKS
THOMSON        MOSUNNY   88  69  52 S3        30.19F HX  92
AUGUSTA-BUSH   MOSUNNY   88  64  44 SE13      30.13F
AUGUSTA-DANIEL MOSUNNY   87  64  46 SE12      30.16F
SWAINSBORO     MOCLDY    88  64  45 SE8       30.15F
VIDALIA        MOSUNNY   86  59  39 SE7       30.14F
EASTMAN        FAIR      88  64  45 SE9       30.16F
HAZLEHURST     FAIR      87  61  42 SE6       30.12F
ALMA           MOSUNNY   86  61  42 E10       30.13F
WAYCROSS       MOSUNNY   87  65  47 E14       30.12F
JESUP          FAIR      90  61  37 E9G16     30.14F
BAXLEY         FAIR      90  63  40 E5        30.12F HX  90
BRUNSWICK        N/A     82  63  51 E10G20    30.16F
SAINT SIMONS   NOT AVBL

$$

SCZ027-028-034-036>038-045-046-048>050-GAZ119-141-282100-
...LAKE AND SUPPLEMENTAL COASTAL OBSERVATIONS...

STATION/POSITION TIME  TEMP    WIND        PRES    WAVE   SWELL
                       AIR SEA DIR/SP/G            HT/PER HT/PER/DIR
                 (UTC) (F)     (DEG/KT/KT) (MB)    (FT/S) (FT/S/D)
UPR LAKE MARION  NOT AVBL
WINYAH BAY       1945   77     120/  8     1022.0F
LAKE MURRAY      1900   83     130/  6/ 10 1020.7F
ACE BASIN NERRS  1900   83     110/  4     1023.0S
FORT PULASKI     2000   78 79   90/  9/ 12 1022.4F
SAPELO ISLAND    2000   83      80/  8     1022.0S

$$

ANZ835-935-AMZ111-154-330-350-352-354-370-450-454-472-282100-
...C-MAN AND BUOY OBSERVATIONS...

STATION/POSITION TIME  TEMP    WIND        PRES    WAVE   SWELL
                       AIR SEA DIR/SP/G            HT/PER HT/PER/DIR
                 (UTC) (F)     (DEG/KT/KT) (MB)    (FT/S) (FT/S/D)
BUOY 41004       1950   77 79   90/ 10/ 12 1022.2F   3/ 8   3/ 8
BUOY 41008       1950   78 79  100/  6/ 10 1021.9F   3/ 7   3/110/ 7
FOLLY BEACH CMAN 2000   76     110/  9/ 11 1022.7F
CAPERS NEARSHORE 1908   76     110/ 10/ 14 1023.1F
FRIPP NEARSHORE  1900   78     120/ 10/ 12 1022.1F


STATION/POSITION TIME  TEMP    WIND        PRES    WAVE   SWELL
                       AIR SEA DIR/SP/G            HT/PER HT/PER/DIR
                 (UTC) (F)     (DEG/KT/KT) (MB)    (FT/S) (FT/S/D)
5E ST. MARYS GA  1921      80                N/A     3/ 7
FRYING PAN BUOY  1950   77 77  110/  8/ 10 1023.8F   3/ 8   3/130/ 8
BUOY 41025       1950   75 78  130/  8/ 10 1023.8F   3/ 8   3/100/ 8
CAPE LOOKOUT NC  2000   75     150/  4/  5 1023.2F
BUOY 41002       1950   74 74   40/ 16/ 17 1022.0F   6/ 8   5/ 80/ 8
BUOY 41010       1920   77 81   50/ 12/ 14 1020.6F
ST AUGUSTINE FL  2000   77 81   70/ 11/ 12 1021.6F


$$



USA.gov is the U.S. government's official web portal to all federal, state and local government web resources and services.